Preview of NWS' New Version of Forecast
This preview is not operational and should not be used for support decisions.

Regional Weather Roundup (RWR)

Issued by National Weather Service (NWS)

                            
000
ASUS44 KMEG 190500
RWRTN 
TENNESSEE HOURLY STATE WEATHER ROUNDUP
NATIONAL WEATHER SERVICE MEMPHIS TN
1100 PM CST MON FEB 18 2019

TNZ002-004-019-021-049-052-054-088>092-190600-
WEST TENNESSEE
  
CITY           SKY/WX    TMP DP  RH WIND       PRES   REMARKS
MEMPHIS INTL   MOCLDY    36  25  64 NE12      30.46S WCI  28          
NWS MEMPHIS      N/A     34 N/A N/A MISG        N/A                   
JACKSON        FAIR      34  24  67 NE13      30.48F WCI  25          
DYERSBURG      FAIR      32  24  72 NE14      30.51S WCI  22          
$$

TNZ008-025-027-028-033-062-065-066-190600-
NORTH MIDDLE TENNESSEE
  
CITY           SKY/WX    TMP DP  RH WIND       PRES   REMARKS
NASHVILLE      MOCLDY    32  22  66 N9        30.51S WCI  24          
CLARKSVILLE    FAIR      30  21  69 E3        30.52S                  
SMYRNA         FAIR      33  24  69 N7        30.52R WCI  27          
CROSSVILLE     FAIR      28  21  75 NE5       30.43R WCI  23          
$$

TNZ061-075-076-078-094-096-097-190600-
SOUTH MIDDLE TENNESSEE
  
CITY           SKY/WX    TMP DP  RH WIND       PRES   REMARKS
$$

TNZ017-018-042-046-047-190600-
NORTHEAST TENNESSEE
  
CITY           SKY/WX    TMP DP  RH WIND       PRES   REMARKS
TRI CITIES     MOCLDY    32  22  66 CALM      30.45R                  
$$

TNZ012-013-036-069-073-074-190600-
CENTRAL EAST TENNESSEE
  
CITY           SKY/WX    TMP DP  RH WIND       PRES   REMARKS
KNOXVILLE      MOCLDY    34  24  67 N8        30.45S WCI  27          
OAK RIDGE      FAIR      34  24  67 N5        30.48R WCI  30          
$$

TNZ083-085-099-190600-
SOUTHEAST TENNESSEE
  
CITY           SKY/WX    TMP DP  RH WIND       PRES   REMARKS
CHATTANOOGA    MOCLDY    37  25  61 N16       30.44F WCI  28          
$$

SKY/WX REPORTED AS FAIR MEANS FEW OR NO CLOUDS BELOW
12 THOUSAND FEET.